Springfield, MO

3:05 PM CST on December 11, 2019 (GMT -0600)
Springfield-Branson Regional

Weather History for KSGF - September, 2019

Change the Weather History Date:

Monday, September 23, 2019

  Actual Average Record
Temperature  
Mean Temperature 73 °F 66 °F  
Max Temperature 84 °F 77 °F 92 °F (1960)
Min Temperature 62 °F 55 °F 35 °F (1983)
Degree Days  
Heating Degree Days 0 3  
Month to date heating degree days 0 26  
Since 1 July heating degree days 0 28  
Cooling Degree Days 8 4  
Month to date cooling degree days 334 152  
Year to date cooling degree days 1577 1338  
Growing Degree Days 24 (Base 50)    
Moisture  
Dew Point 61 °F    
Average Humidity 67    
Maximum Humidity 100    
Minimum Humidity 34    
Precipitation  
Precipitation T in 0.15 in 1.80 in (1996)
Month to date precipitation 1.18 3.56  
Year to date precipitation 41.26 33.67  
Snow  
Snow 0.00 in - - ()
Month to date snowfall 0.0  
Since 1 July snowfall 0.0  
Since 1 September snowfall 0.0  
Snow Depth 0.00 in    
Sea Level Pressure  
Sea Level Pressure 30.05 in    
Wind  
Wind Speed 7 mph (NE)    
Max Wind Speed 13 mph    
Max Gust Speed 18 mph    
Visibility 9 miles    
Events Rain    
T = Trace of Precipitation, MM = Missing Value Source: NWS Daily Summary

Daily Weather History Graph

Daily Weather History Graph

Search for Another Location

Airport or City:

Astronomy

Sep. 23, 2019 Rise Set
Actual Time 7:02 AM CDT 7:09 PM CDT
Civil Twilight 6:36 AM CDT 7:35 PM CDT
Nautical Twilight 6:05 AM CDT 8:05 PM CDT
Astronomical Twilight 5:34 AM CDT 8:36 PM CDT
Moon 12:54 AM CDT (9/23) 3:55 PM CDT (9/23)
Length of Visible Light 12h 59m
Length of Day
12h 07m
Waning Crescent, 33% of the Moon is Illuminated
Sep 23
Waning Crescent
Sep 28
New
Oct 5
First Quarter
Oct 13
Full
Oct 21
Last Quarter

Hourly Weather History & Observations

Time (CDT) Temp. Heat Index Dew Point Humidity Pressure Visibility Wind Dir Wind Speed Gust Speed Precip Events Conditions
12:12 AM 68.0 °F - 66.9 °F 96% 30.03 in 3.0 mi NNW 3.5 mph - 0.28 in Rain Light Rain
12:34 AM 66.9 °F - 66.0 °F 97% 30.03 in 10.0 mi Calm Calm - 0.29 in   Mostly Cloudy
12:52 AM 66.9 °F - 66.0 °F 97% 30.00 in 10.0 mi NE 4.6 mph - 0.29 in   Scattered Clouds
1:24 AM 66.0 °F - 64.9 °F 96% 30.04 in 10.0 mi Calm Calm - N/A   Mostly Cloudy
1:36 AM 66.9 °F - 64.9 °F 93% 30.04 in 10.0 mi Calm Calm - N/A   Mostly Cloudy
1:52 AM 66.9 °F - 66.0 °F 97% 30.02 in 10.0 mi Calm Calm - N/A   Overcast
2:14 AM 66.9 °F - 64.9 °F 93% 30.04 in 10.0 mi Calm Calm - N/A   Overcast
2:52 AM 66.9 °F - 66.0 °F 97% 30.01 in 10.0 mi Calm Calm - N/A   Overcast
3:13 AM 66.9 °F - 64.9 °F 93% 30.04 in 10.0 mi NW 3.5 mph - N/A   Overcast
3:33 AM 66.9 °F - 64.9 °F 93% 30.04 in 10.0 mi NW 4.6 mph - N/A   Overcast
3:41 AM 66.9 °F - 64.9 °F 93% 30.05 in 10.0 mi NW 4.6 mph - N/A   Overcast
3:52 AM 66.9 °F - 64.9 °F 93% 30.02 in 10.0 mi NNW 8.1 mph - N/A   Overcast
4:30 AM 66.9 °F - 66.0 °F 97% 30.05 in 10.0 mi North 6.9 mph - N/A   Overcast
4:52 AM 66.9 °F - 66.0 °F 97% 30.03 in 5.0 mi North 8.1 mph - N/A   Overcast
5:08 AM 66.9 °F - 66.0 °F 97% 30.05 in 2.0 mi North 8.1 mph - N/A   Overcast
5:29 AM 66.9 °F - 66.0 °F 97% 30.06 in 4.0 mi North 10.4 mph - N/A   Overcast
5:52 AM 66.9 °F - 64.9 °F 93% 30.04 in 10.0 mi North 9.2 mph - N/A   Overcast
6:00 AM 66.9 °F - 64.9 °F 93% 30.07 in 10.0 mi NNE 9.2 mph - N/A   Overcast
6:52 AM 66.0 °F - 64.0 °F 93% 30.06 in 10.0 mi NNE 5.8 mph - N/A   Overcast
7:52 AM 64.0 °F - 61.0 °F 90% 30.07 in 10.0 mi ENE 6.9 mph - N/A   Overcast
8:52 AM 64.9 °F - 62.1 °F 90% 30.10 in 10.0 mi ENE 5.8 mph - N/A   Overcast
9:52 AM 66.9 °F - 62.1 °F 84% 30.11 in 10.0 mi NE 8.1 mph - N/A   Mostly Cloudy
10:19 AM 70.0 °F - 62.1 °F 76% 30.13 in 10.0 mi ENE 8.1 mph - N/A   Partly Cloudy
10:52 AM 72.0 °F - 61.0 °F 68% 30.11 in 10.0 mi ENE 8.1 mph - N/A   Clear
11:52 AM 75.9 °F - 57.9 °F 54% 30.12 in 10.0 mi NE 9.2 mph - N/A   Clear
12:52 PM 79.0 °F - 57.9 °F 48% 30.10 in 10.0 mi NE 8.1 mph - N/A   Clear
2:52 PM 82.9 °F - 52.0 °F 34% 30.06 in 10.0 mi ENE 10.4 mph - N/A   Clear
3:52 PM 82.9 °F - 51.1 °F 33% 30.05 in 10.0 mi ENE 6.9 mph - N/A   Clear
4:52 PM 82.0 °F - 51.1 °F 34% 30.04 in 10.0 mi NE 9.2 mph - N/A   Clear
5:52 PM 81.0 °F 80.4 °F 53.1 °F 38% 30.03 in 10.0 mi NE 10.4 mph - N/A   Clear
6:52 PM 75.9 °F - 54.0 °F 46% 30.03 in 10.0 mi ENE 6.9 mph - N/A   Clear
7:52 PM 69.1 °F - 55.0 °F 61% 30.04 in 10.0 mi East 5.8 mph - N/A   Clear
8:52 PM 66.9 °F - 54.0 °F 63% 30.05 in 10.0 mi ESE 5.8 mph - N/A   Clear
9:52 PM 64.9 °F - 54.0 °F 68% 30.04 in 10.0 mi ESE 5.8 mph - N/A   Clear
10:52 PM 64.0 °F - 53.1 °F 67% 30.04 in 10.0 mi SE 8.1 mph - N/A   Clear
11:52 PM 63.0 °F - 53.1 °F 70% 30.02 in 10.0 mi SSE 9.2 mph - N/A   Clear